Regional Weather Roundup
Issued by NWS

Home | Current Version | Previous Version | Text Only | Print | Product List | Glossary On
Versions: 1 2 3 4 5 6 7 8 9 10 11 12 13 14 15 16 17 18 19 20 21 22 23 24 25 26 27 28 29 30 31 32 33 34 35 36 37 38 39 40 41 42 43 44 45 46 47 48 49 50
000
ASUS44 KLIX 171910
RWRLA
LOUISIANA WEATHER ROUNDUP
NATIONAL WEATHER SERVICE NEW ORLEANS LA
200 PM CDT WED SEP 17 2014

NOTE: "FAIR" INDICATES FEW OR NO CLOUDS BELOW 12,000 FEET WITH NO
      SIGNIFICANT WEATHER AND/OR OBSTRUCTIONS TO VISIBILITY.
      SKY/WX - SKY CONDITION AND SIGNIFICANT WEATHER.
      TMP - AIR TEMPERATURE.    DP   - DEWPOINT TEMPERATURE.
      RH  - RELATIVE HUMIDITY.  PRES - PRESSURE.
      HX  - HEAT INDEX.         WCI  - WIND CHILL INDEX.

*  THESE STATIONS ARE NOT NWS OR FAA STATIONS AND ARE NOT UNDER
   NWS QUALITY CONTROL.

LAZ040-048-061>063-065-066-069-172000-
SOUTHEAST LOUISIANA

CITY           SKY/WX    TMP DP  RH WIND       PRES   REMARKS
N.O. AUDUBON     N/A     90  77  65 MISG        N/A  HX 102
N.O. INTL ARPT PTSUNNY   86  73  65 N9        29.94F
N.O. LAKEFRONT PTSUNNY   86  71  60 N6        29.95F
N.O. DOWNTOWN* MOCLDY    84  72  65 NE8       29.94F
SLIDELL        MOSUNNY   87  70  56 CALM      29.94F
BATON ROUGE    PTSUNNY   86  73  65 NW5       29.95F
BOOTHVILLE     MOSUNNY   87  74  64 VRB5      29.94F HX  95
BELLE CHASSE   PTSUNNY   86  71  60 CALM      29.93F
BOGALUSA*        N/A     89  67  47 CALM      29.96F
GALLIANO*      NOT AVBL
NEW ROADS*     FAIR      84  72  67 NE3       29.96S
GONZALES*      MOCLDY    85  76  75 N5        29.94F
HAMMOND*       PTSUNNY   86  70  58 CALM      29.96F
HOUMA*         MOSUNNY   90  68  48 N5        29.94F
PORT FOURCHON* MOCLDY    84  73  70 CALM      29.98S

$$

LAZ041-044-053-054-172000-
SOUTHWEST LOUISIANA

CITY           SKY/WX    TMP DP  RH WIND       PRES   REMARKS
LAKE CHARLES   MOSUNNY   86  73  65 CALM      29.93F
LAFAYETTE      PTSUNNY   87  72  60 E5        29.94F
PATTERSON      MOSUNNY   88  73  62 N3        29.97F HX  96
SALT POINT       N/A     87  75  67 VRB3      29.94F HX  96
NEW IBERIA     MOSUNNY   89  72  56 VRB3      29.95F HX  96
CHENAULT AIRPK PTSUNNY   86  73  66 N6        29.94F

$$

LAZ027-028-172000-
CENTRAL LOUISIANA

CITY           SKY/WX    TMP DP  RH WIND       PRES   REMARKS
FORT POLK      PTSUNNY   85  71  63 CALM      29.95F
ALEXANDRIA INT PTSUNNY   87  72  60 VRB6      29.94F
ALEXANDRIA     PTSUNNY   85  72  65 CALM      29.96F

$$

LAZ001-002-172000-
NORTHWEST LOUISIANA

CITY           SKY/WX    TMP DP  RH WIND       PRES   REMARKS
SHREVEPORT     PTSUNNY   88  70  55 CALM      29.93F
BARKSDALE AFB  PTSUNNY   89  71  54 S9        29.94F HX  95
DTN SHREVEPORT PTSUNNY   87  70  56 VRB5      29.93F

$$

LAZ014-016-172000-
NORTHEAST LOUISIANA

CITY           SKY/WX    TMP DP  RH WIND       PRES   REMARKS
MONROE         MOSUNNY   87  69  54 CALM      29.95F
TALLULAH       MOSUNNY   89  65  44 VRB5      29.93F

$$



USA.gov is the U.S. government's official web portal to all federal, state and local government web resources and services.